This is the latest recevied weather packets stored in our database for station/object N2ZVN. If no packets are shown the sender has not sent any weather packets the latest 10 day(s).
| Time | Temp. | Humidity | Pressure | Rain* | Wind** | Luminosity | Snow |
|---|---|---|---|---|---|---|---|
| 1787923005 | 16.67° C | 84% | 1021 hPa | 0 mm | - | 418 W/m² | - |
| 1787922699 | 16.67° C | 84% | 1020.9 hPa | 0 mm | - | 248 W/m² | - |
| 1787922399 | 17.22° C | 84% | 1020.8 hPa | 0 mm | - | 91 W/m² | - |
| 1787922097 | 17.22° C | 85% | 1020.8 hPa | 0 mm | - | 137 W/m² | - |
| 1787921796 | 17.22° C | 86% | 1020.7 hPa | 0 mm | - | 182 W/m² | - |
| 1787921496 | 17.22° C | 86% | 1020.6 hPa | 0 mm | - | 138 W/m² | - |
| 1787921196 | 17.22° C | 88% | 1020.5 hPa | 0 mm | - | 83 W/m² | - |
| 1787920892 | 17.22° C | 88% | 1020.5 hPa | 0 mm | - | 74 W/m² | - |
| 1787920587 | 17.22° C | 88% | 1020.1 hPa | 0 mm | - | 91 W/m² | - |
| 1787920281 | 17.22° C | 88% | 1020.3 hPa | 0 mm | - | 185 W/m² | - |
| 1787919979 | 17.22° C | 88% | 1020.3 hPa | 0 mm | - | 87 W/m² | - |
| 1787919679 | 17.22° C | 87% | 1020.1 hPa | 0 mm | - | 47 W/m² | - |
| 1787919373 | 17.22° C | 88% | 1020 hPa | 0 mm | - | 96 W/m² | - |
| 1787919070 | 17.22° C | 89% | 1020 hPa | 0 mm | - | 83 W/m² | - |
| 1787918764 | 17.22° C | 87% | 1020 hPa | 0 mm | - | 68 W/m² | - |
| 1787918464 | 17.78° C | 86% | 1019.8 hPa | 0 mm | - | 40 W/m² | - |
| 1787918162 | 17.78° C | 85% | 1019.7 hPa | 0 mm | - | 71 W/m² | - |
| 1787917857 | 17.78° C | 87% | 1019.7 hPa | 0 mm | - | 61 W/m² | - |
| 1787917553 | 17.78° C | 87% | 1019.3 hPa | 0 mm | - | 28 W/m² | - |
| 1787917249 | 17.78° C | 91% | 1019.1 hPa | 0 mm | - | 47 W/m² | - |
| 1787916948 | 17.22° C | 95% | 1019.3 hPa | 0 mm | - | 42 W/m² | - |
| 1787916644 | 16.67° C | 97% | 1019.1 hPa | 0 mm | - | 37 W/m² | - |
| 1787916343 | 16.11° C | 98% | 1019.2 hPa | 0 mm | - | 36 W/m² | - |
| 1787916039 | 16.11° C | 98% | 1019 hPa | 0 mm | - | 17 W/m² | - |
| 1787915733 | 16.11° C | 98% | 1018.9 hPa | 0 mm | - | 15 W/m² | - |
* Rain latest hour (hover to see other rain measurements)
** Current wind speed in m/s (hover to see current wind gust speed)